{"data":{"norad_id":47825,"intl_designator":"2021-018AQ","name":"STARLINK-2410","alt_names":[],"object_type":"PAYLOAD","status":"ACTIVE","operator":null,"country":"US","launch_date":"2021-03-11","launch_site_code":"AFETR","launch_vehicle":null,"mission":null,"orbit_class":"UNKNOWN","rcs_meters":null,"size_class":null,"mass_kg":null,"dimensions":null,"purposes":["comms"],"wikipedia_slug":null,"has_3d_model":false,"image_url":null,"decayed_at":null,"tle_current":{"epoch":"2026-05-25T00:31:26.391936Z","epoch_age_seconds":83699,"freshness":"FRESH","line1":"1 47825U 21018AQ  26145.02183324 -.00001099  00000+0 -23656-4 0  9995","line2":"2 47825  53.1596 247.8134 0002032  82.9058 277.2175 15.31687877288423","mean_motion":15.31687877,"eccentricity":0.0002032,"inclination_deg":53.1596,"raan_deg":247.8134,"arg_perigee_deg":82.9058,"mean_anomaly_deg":277.2175,"bstar":-2.3656e-5,"rev_number":28842,"period_min":94.013932056472,"perigee_km":469.38443434745,"apogee_km":472.1678326449,"semimajor_km":6848.9131334962,"source":"CELESTRAK","updated_at":"2026-05-25T13:38:16.604487Z"}}}